Location: Newark
(58.8333°N, 23.5833°E)
Time: 12:49:14
(UTC+00:00)

S-56A Canister/Altair - Pass Details

Date: 27 November 2019
Orbit: 632 x 2500 km, 38.9° (Epoch: 15 December)

Event Time Altitude Azimuth Distance (km) Brightness Sun altitude
Rises 17:14:08 0° 259° (W) 5,147 13.0 -25.8°
Reaches altitude 10° 17:20:08 10° 237° (WSW) 3,682 11.7 -26.6°
Maximum altitude 17:23:53 13° 212° (SSW) 3,123 10.9 -27.1°
Drops below altitude 10° 17:27:08 10° 187° (S) 3,083 10.6 -27.5°
Enters shadow 17:29:26 - 170° (S) 3,343 10.7 -27.8°
